TimeEDT,TemperatureF,Dew PointF,Humidity,Sea Level PressureIn,VisibilityMPH,Wind Direction,Wind SpeedMPH,Gust SpeedMPH,PrecipitationIn,Events,Conditions,WindDirDegrees,DateUTC
1:53 AM,63.0,61.0,93,29.97,10.0,NE,8.1,-,N/A,,Clear,50,2012-10-07 05:53:00
2:11 AM,62.6,60.8,94,29.98,9.0,NE,5.8,-,N/A,,Scattered Clouds,50,2012-10-07 06:11:00
2:20 AM,62.6,62.6,100,29.98,9.0,NE,5.8,-,N/A,,Mostly Cloudy,50,2012-10-07 06:20:00
2:51 AM,60.8,59.0,94,29.96,10.0,NE,8.1,-,N/A,,Scattered Clouds,50,2012-10-07 06:51:00
2:53 AM,61.0,59.0,93,29.96,10.0,NE,9.2,-,N/A,,Partly Cloudy,50,2012-10-07 06:53:00
3:53 AM,57.0,55.0,93,29.99,10.0,NE,9.2,-,N/A,,Clear,40,2012-10-07 07:53:00
4:23 AM,57.2,55.4,94,29.97,10.0,NE,8.1,-,N/A,,Scattered Clouds,40,2012-10-07 08:23:00
4:53 AM,55.9,54.0,93,29.99,10.0,North,8.1,-,N/A,,Mostly Cloudy,10,2012-10-07 08:53:00
5:53 AM,55.0,52.0,89,29.98,10.0,NNE,9.2,-,N/A,,Overcast,30,2012-10-07 09:53:00
6:53 AM,54.0,53.1,97,29.99,10.0,NNE,5.8,-,N/A,,Partly Cloudy,30,2012-10-07 10:53:00
7:42 AM,55.4,53.6,94,30.03,10.0,Variable,6.9,-,N/A,Thunderstorm,Mostly Cloudy,0,2012-10-07 11:42:00
7:53 AM,55.9,54.0,93,30.10,7.0,NNW,16.1,26.5,0.02,Rain-Thunderstorm,Heavy Thunderstorms and Rain,340,2012-10-07 11:53:00
8:01 AM,55.4,53.6,94,30.02,2.0,NNE,15.0,23.0,0.12,Rain-Thunderstorm,Heavy Thunderstorms and Rain,30,2012-10-07 12:01:00
8:04 AM,55.4,53.6,94,30.02,1.2,NNE,13.8,20.7,0.17,Rain-Thunderstorm,Heavy Thunderstorms and Rain,30,2012-10-07 12:04:00
8:15 AM,55.4,53.6,94,30.03,3.0,NNE,9.2,-,0.22,Rain-Thunderstorm,Light Rain,30,2012-10-07 12:15:00
8:25 AM,55.4,53.6,94,30.03,10.0,NNE,9.2,-,0.22,,Overcast,30,2012-10-07 12:25:00
8:53 AM,55.0,53.1,93,30.05,10.0,ENE,8.1,-,0.22,,Scattered Clouds,60,2012-10-07 12:53:00
9:48 AM,57.2,55.4,94,30.04,10.0,NE,8.1,-,N/A,,Overcast,40,2012-10-07 13:48:00
9:53 AM,57.9,55.0,90,30.05,10.0,NE,9.2,-,N/A,,Overcast,50,2012-10-07 13:53:00
10:53 AM,59.0,55.9,90,30.06,10.0,NE,5.8,-,N/A,,Overcast,40,2012-10-07 14:53:00
11:53 AM,57.9,55.9,93,30.07,10.0,NNE,9.2,-,N/A,,Overcast,20,2012-10-07 15:53:00
12:53 PM,57.9,54.0,87,30.05,10.0,NE,8.1,-,N/A,,Overcast,40,2012-10-07 16:53:00
1:53 PM,60.1,54.0,80,30.05,10.0,NE,5.8,-,N/A,,Overcast,40,2012-10-07 17:53:00
2:53 PM,59.0,54.0,83,30.03,10.0,ENE,5.8,-,N/A,,Overcast,60,2012-10-07 18:53:00
3:53 PM,60.1,54.0,80,30.05,10.0,NE,4.6,-,N/A,,Overcast,40,2012-10-07 19:53:00
4:53 PM,59.0,54.0,83,30.06,10.0,North,9.2,-,N/A,,Overcast,360,2012-10-07 20:53:00
5:30 PM,57.2,53.6,88,30.06,10.0,North,10.4,-,N/A,,Overcast,360,2012-10-07 21:30:00
5:53 PM,55.9,54.0,93,30.10,5.0,North,9.2,-,N/A,,Overcast,360,2012-10-07 21:53:00
6:16 PM,55.4,53.6,94,30.08,10.0,North,12.7,-,N/A,,Overcast,360,2012-10-07 22:16:00
6:46 PM,55.4,53.6,94,30.07,10.0,NNE,8.1,-,N/A,,Overcast,20,2012-10-07 22:46:00
6:53 PM,55.9,53.1,90,30.11,10.0,NNE,6.9,-,N/A,,Overcast,20,2012-10-07 22:53:00
6:59 PM,55.4,53.6,94,30.08,10.0,NNE,9.2,-,N/A,,Overcast,20,2012-10-07 22:59:00
7:07 PM,55.4,53.6,94,30.08,10.0,NNE,10.4,-,N/A,,Overcast,20,2012-10-07 23:07:00
7:41 PM,55.4,51.8,88,30.09,10.0,NNE,12.7,-,N/A,,Overcast,20,2012-10-07 23:41:00
7:53 PM,55.0,51.1,86,30.12,10.0,NNE,10.4,-,N/A,,Overcast,30,2012-10-07 23:53:00
8:01 PM,55.4,51.8,88,30.09,10.0,NNE,10.4,-,N/A,,Overcast,30,2012-10-08 00:01:00
8:53 PM,54.0,51.1,90,30.13,10.0,NE,9.2,-,N/A,,Mostly Cloudy,40,2012-10-08 00:53:00
9:53 PM,54.0,51.1,90,30.15,10.0,NNE,11.5,-,N/A,,Overcast,30,2012-10-08 01:53:00
10:53 PM,54.0,50.0,86,30.15,10.0,NNE,10.4,-,N/A,,Overcast,30,2012-10-08 02:53:00
11:53 PM,54.0,48.9,83,30.16,10.0,NNE,11.5,-,N/A,,Overcast,30,2012-10-08 03:53:00